Вернуться в каталог

STARLINK-6175

АктивенСвязьVLEO
NORAD 56882·PAYLOAD·🇺🇸 United States

Запущен Jun 12, 2023 с Cape Canaveral Space Force Station

Loading…

Ближайшие Пролёты (ближайшие 24 часа)

TLE

СвежийSource: CelesTrak SupGP

Эпоха: Sep 15, 2026, 01:36 UTC

1 56882C 23083G   26258.06715278  .00031032  00000+0  11238-2 0  2587
2 56882  43.0022  95.5931 0001337 271.3343 117.5554 15.27567281    14

Отслеживайте STARLINK-6175 в реальном времени с AllMySat

Download on the App Store